Showing default

YAM-10, 64580

Orbit data source: Space-Track

YAM-10, 64580 is an American payload satellite in SSO that was launched on Mon, 23 Jun 2025 UTC via an FALCON 9 launch vehicle from the Air Force Western Test Range (AFWTR). Payload-class satellites include a variety of spacecraft equipped with specific instruments for various scientific and technological missions. These include communications satellites like Starlink; space stations such as the ISS; scientific satellites like the Hubble; Earth observation satellites from companies like Planet Labs, Umbra, and HawkEye 360; GPS; miniature CubeSats for education and research; and military/defense satellites.

Loading next visibility...
Identifier
64580, 2025-135BE
Orbit
SSO
Country
Flag of USUS
Related business
Manufacturer
Airbus/Toulouse
Mission
Operational Commercial Technology
Bus & Motor
ARROW, Unknown motor
Mass
~150 kg wet, ~140 kg dry
Launch date (UTC)
2025-06-23 (11 months ago)
Launch vehicle
FALCON 9
Launch site
Air Force Western Test Range (AFWTR)
Object type
Payload
Rocket body
Debris
Shape & HBR
Trap Box + 2 Pan, 2.3 m
Radar Cross Section
2.032 m², Large (>1 m²)

Expand to show TLE details & history
Last TLE update: 12 hours ago

TLE from 12 hours ago
0 YAM-10
1 64580U 25135BE  26133.06406508  .00001275  00000-0  13232-3 0  9992
2 64580  97.7688 247.4154 0004629 105.5707 254.6023 14.91687253 48621
Epoch: 2026-05-13T01:32Z
TLE epoch observation values (Epoch: 2026-05-13T01:32:15.222Z)
Latitude
-0.00004°
Longitude
-6.47748°
Altitude
596.574 km
Speed
7.561 km/s
True Right ascension
16h 29m 39s
True Declination
0° 00' 00"
Sunlit
Object was in full shadow at epoch
Visualization orbit readout
Latitude
Unknown
Longitude
Unknown
Altitude
Unknown
Speed
Unknown
Apparent Right ascension
Unknown
Apparent Declination
Unknown
Sunlit
N/A
Visualization observer readout
Local Sidereal Time
22:05:38
Azimuth
Unknown
Elevation
Unknown
Doppler factor
Unknown
Orbital elements
Apogee altitude
592.919 km
Perigee altitude
586.468 km
Semi-major axis
6,967.831 km
Eccentricity
0.00046
Inclination
97.7688°
RAAN
247.4154°
Arg. of periapsis
105.5707°
True anomaly
254.55117°
Mean anomaly
254.6023°
Eccentric anomaly
254.57673°
Mean motion
3.73161 °/min
Orbital period
96.47 mins
BSTAR
0.00013232
Loading maneuver chart data...
Computing Atmospheric mass density...
Loading historical data...
Loading historical data...
Loading historical data...
Loading historical data...
Loading historical data...
Loading historical data...
Loading historical data...

Documentation

Showing up to 5 results
|